Regional Weather Roundup
Issued by NWS Newport/Morehead, NC

Current Version | Previous Version | Graphics & Text | Print | Product List | Glossary Off
Versions: 1 2 3 4 5 6 7 8 9 10 11 12 13 14 15 16 17 18 19 20 21 22 23 24 25 26 27 28 29 30 31 32 33 34 35 36 37 38 39 40 41 42 43 44 45 46 47 48 49 50

463
ASUS42 KMHX 242313
RWRMHX
WEATHER ROUNDUP FOR EASTERN NORTH CAROLINA
NATIONAL WEATHER SERVICE NEWPORT/MOREHEAD CITY NC
700 PM EDT SAT JUN 24 2017

NOTE: "FAIR" INDICATES FEW OR NO CLOUDS BELOW 12,000 FEET
WITH NO SIGNIFICANT WEATHER AND/OR OBSTRUCTIONS TO VISIBILITY

NCZ015>017-031-032-045>047-102-103-250000-
NORTH COAST

CITY           SKY/WX    TMP DP  RH WIND       PRES   REMARKS
EDENTON        PTSUNNY   89  73  58 S10G17    29.91R
ELIZABETH CITY PTSUNNY   86  75  69 SW6       29.90R
KITTY HAWK     CLOUDY    84  71  65 CALM      29.89R
MANTEO         HVY RAIN  81  74  78 SE5       29.92R

$$

NCZ045>047-081-094-103-104-250000-
CENTRAL COAST

CITY           SKY/WX    TMP DP  RH WIND       PRES   REMARKS
FRISCO         MOSUNNY   81  75  82 SW10G21   29.94R HAZE

$$

NCZ095-097-098-100-101-250000-
SOUTHERN COAST

CITY           SKY/WX    TMP DP  RH WIND       PRES   REMARKS
BEAUFORT       SUNNY     83  78  85 SW22      29.95R
CEDAR ISLAND   NOT AVBL
JACKSONVILLE   SUNNY     84  76  76 SW8       29.92R
PINEY ISLAND   CLEAR    N/A N/A N/A SW17G24   29.94R
WILMINGTON     SUNNY     85  73  67 SW17G29   29.94S


$$

NCZ011>013-027>030-043-044-078>080-089-090>093-098-250000-
COASTAL PLAIN

CITY           SKY/WX    TMP DP  RH WIND       PRES   REMARKS
AHOSKIE          N/A     82  76  80 CALM      29.90S
CLINTON        LGT RAIN  75  75 100 W6        29.96R
ELIZABETHTOWN  NOT AVBL
GOLDSBORO      LGT RAIN  78  78 100 CALM      29.92R
GREENVILLE     LGT RAIN  81  77  89 SW10      29.94R
HAVELOCK       SUNNY     84  73  69 SW15G22   29.94R THUNDER
KENANSVILLE    RAIN      77  77 100 NW3       29.92R
KINSTON        CLOUDY    75  75 100 CALM      29.93R
NEW BERN       TSTM      75  74  96 E6        29.96R
RICHLANDS      CLOUDY    79  75  89 VRB7G17   29.94R THUNDER
ROCKY MOUNT    LGT RAIN  77  77 100 S7        29.92R
WASHINGTON     LGT RAIN N/A N/A N/A S10G18    29.93R
WHITEVILLE     CLOUDY    88  74  61 SW8       29.94R

$$

AMZ130-135-150-152-154-156-158-170-250-252-270-ANZ085-086-088-633-658-670-250000-
MARINE OBSERVATIONS

STATION/POSITION TIME  TEMP    WIND        PRES    WAVE   SWELL
                       AIR SEA DIR/SP/G            HT/PER HT/PER
                 (UTC) (F)     (DEG/KT/KT) (MB)    (FT/S) (FT/S)
CHESAPEAKE LIGHT NOT AVBL
64 E VA BEACH    2250   76 74  180/  8/  8 1013.0    5/ 7   5/ 7
DUCK             2248   75 61  150/  8/  8 1012.1
2 E DUCK         NOT AVBL
OREGON INLET     2248          210/ 15/ 17 1012.8
13E OREGON INLT  2248      74                N/A     4/ 7   2/ 7
HATTERAS CG      2248   79 79  220/ 12/ 16 1013.7
DIAMOND BUOY     2250   81 80  230/ 19/ 23 1013.8    6/ 7
CAPE LOOKOUT     2300   81     210/ 15/ 20 1013.8
BEAUFORT LAB     2248   81 80  210/ 16/ 19 1013.2
30 SE NEW RVR IN 2208   80 80  220/ 19/ 23 1014.2
30 SE NEW RVR IN 2243      80                N/A     7/ 6   2/22
27 SE WRIGHTSVLE 2208   80 80  210/ 17/ 27 1014.1
5 SE WRIGHTSVLE  2208   81 79  210/ 14/ 23 1014.3
225 S CAPE HAT   2250   81 81  200/ 14/ 17 1018.6    4/ 6   2/ 8
41 SE CHARLESTON 2250   81 81  200/ 17/ 21 1015.6    4/ 6   2/ 9

$$




USA.gov is the U.S. government's official web portal to all federal, state and local government web resources and services.